This is the latest recevied weather packets stored in our database for station/object ON5MM-5. If no packets are shown the sender has not sent any weather packets the latest 10 day(s).
| Time | Temp. | Humidity | Pressure | Rain* | Wind** | Luminosity | Snow |
|---|---|---|---|---|---|---|---|
| 1777752002 | 13.33° C | 88% | 1016.5 hPa | 0 mm | 1.34 m/s, ° | - | - |
| 1777751703 | 13.33° C | 88% | 1016.5 hPa | 0 mm | 0.89 m/s, ° | - | - |
| 1777751403 | 13.33° C | 88% | 1016.5 hPa | 0 mm | 1.79 m/s, ° | - | - |
| 1777751102 | 13.33° C | 88% | 1016.5 hPa | 0 mm | 0 m/s | - | - |
| 1777750803 | 13.33° C | 88% | 1016.5 hPa | 0 mm | 0 m/s | - | - |
| 1777750503 | 13.33° C | 87% | 1016.6 hPa | 0 mm | 0 m/s | - | - |
| 1777750202 | 13.33° C | 87% | 1016.7 hPa | 0 mm | 0 m/s | - | - |
| 1777749902 | 13.33° C | 87% | 1016.7 hPa | 0 mm | 0.45 m/s, ° | - | - |
| 1777749602 | 13.33° C | 87% | 1016.7 hPa | 0 mm | 0.89 m/s, ° | - | - |
| 1777749302 | 13.33° C | 86% | 1016.5 hPa | 0 mm | 0 m/s | - | - |
| 1777749002 | 13.33° C | 86% | 1016.7 hPa | 0 mm | 0 m/s | - | - |
| 1777748702 | 13.33° C | 86% | 1016.7 hPa | 0 mm | 0 m/s | - | - |
| 1777748403 | 13.33° C | 85% | 1016.8 hPa | 0 mm | 0 m/s | - | - |
| 1777748103 | 13.33° C | 85% | 1016.9 hPa | 0 mm | 0 m/s | - | - |
| 1777747803 | 13.33° C | 85% | 1016.9 hPa | 0.25 mm | 0 m/s | - | - |
| 1777747502 | 13.33° C | 85% | 1017 hPa | 0.51 mm | 0 m/s | - | - |
| 1777747202 | 13.33° C | 85% | 1017.2 hPa | 0.51 mm | 0 m/s | - | - |
| 1777746902 | 13.33° C | 84% | 1017.1 hPa | 0.51 mm | 0 m/s | - | - |
| 1777746603 | 13.33° C | 84% | 1017 hPa | 0.51 mm | 0 m/s | - | - |
| 1777746303 | 13.33° C | 83% | 1017 hPa | 0.51 mm | 0 m/s | - | - |
| 1777746003 | 13.33° C | 83% | 1016.9 hPa | 0.51 mm | 0 m/s | - | - |
| 1777745702 | 13.33° C | 83% | 1016.9 hPa | 0.51 mm | 0 m/s | - | - |
| 1777745402 | 13.33° C | 83% | 1016.8 hPa | 0.76 mm | 0 m/s | - | - |
| 1777745102 | 13.33° C | 82% | 1016.7 hPa | 0.76 mm | 0 m/s | - | - |
| 1777744803 | 13.33° C | 82% | 1016.9 hPa | 0.76 mm | 0 m/s | - | - |
* Rain latest hour (hover to see other rain measurements)
** Current wind speed in m/s (hover to see current wind gust speed)